When you browse on this site, cookies collect data to enhance your experience and personalize the content and advertising you see.
Visit our Privacy Policy to learn more. By continuing to use the site, you agree to this use of cookies and data.
  • In Czech Republic
  • List of Countries
  • For 7 days
  • Water Temperature
  • Satellite Maps
  • Weather Map
  • Weather Widgets
  • user-avatar
    Login

    Hourly Weather Tuxtepec

    Today, 17 January, Thursday

    Time Temperature Precipitation Wind Pressure Humidity
    00:00 +21°C° 0 mm 2 mps 762 mmHg 95%
    01:00 +22°C° 0 mm 1 mps 762 mmHg 95%
    02:00 +21°C° 0 mm 1 mps 762 mmHg 94%
    03:00 +21°C° 0 mm 1 mps 762 mmHg 94%
    04:00 +21°C° 0 mm 1 mps 762 mmHg 93%
    05:00 +21°C° 0 mm 1 mps 762 mmHg 92%
    06:00 +21°C° 0 mm 1 mps 762 mmHg 91%
    07:00 +22°C° 0 mm 1 mps 762 mmHg 88%
    08:00 +23°C° 0 mm 1 mps 762 mmHg 84%
    09:00 +24°C° 0 mm 1 mps 763 mmHg 80%
    10:00 +26°C° 0 mm 1 mps 762 mmHg 76%
    11:00 +27°C° 0 mm 1 mps 762 mmHg 72%
    12:00 +28°C° 0 mm 2 mps 762 mmHg 68%
    13:00 +28°C° 0.4 mm 2 mps 761 mmHg 69%
    14:00 +28°C° 0.4 mm 2 mps 760 mmHg 71%
    15:00 +28°C° 0.4 mm 2 mps 759 mmHg 72%
    16:00 +27°C° 0.2 mm 2 mps 760 mmHg 78%
    17:00 +25°C° 0.2 mm 1 mps 760 mmHg 83%
    18:00 +24°C° 0.2 mm 1 mps 760 mmHg 88%
    19:00 +24°C° 0 mm 1 mps 761 mmHg 90%
    20:00 +23°C° 0 mm 1 mps 761 mmHg 92%
    21:00 +22°C° 0 mm 1 mps 762 mmHg 93%
    22:00 +22°C° 0 mm 1 mps 762 mmHg 94%
    23:00 +22°C° 0 mm 1 mps 762 mmHg 94%

    Tomorrow, 18 January, Friday

    Time Temperature Precipitation Wind Pressure Humidity
    00:00 +21°C° 0 mm 1 mps 762 mmHg 94%
    01:00 +21°C° 0 mm 1 mps 762 mmHg 94%
    02:00 +21°C° 0 mm 1 mps 761 mmHg 94%
    03:00 +20°C° 0 mm 1 mps 761 mmHg 93%
    04:00 +20°C° 0 mm 1 mps 761 mmHg 93%
    05:00 +20°C° 0 mm 1 mps 761 mmHg 92%
    06:00 +20°C° 0 mm 1 mps 760 mmHg 91%
    07:00 +19°C° 0 mm 0 mps 761 mmHg 87%
    08:00 +20°C° 0 mm 0 mps 761 mmHg 84%
    09:00 +21°C° 0 mm 0 mps 762 mmHg 80%
    10:00 +23°C° 0 mm 0 mps 761 mmHg 76%
    11:00 +26°C° 0 mm 1 mps 761 mmHg 71%
    12:00 +28°C° 0 mm 1 mps 760 mmHg 67%
    13:00 +28°C° 0 mm 1 mps 759 mmHg 66%
    14:00 +28°C° 0 mm 1 mps 758 mmHg 65%
    15:00 +28°C° 0 mm 1 mps 757 mmHg 63%
    16:00 +27°C° 0 mm 1 mps 757 mmHg 68%
    17:00 +24°C° 0 mm 0 mps 757 mmHg 74%
    18:00 +23°C° 0 mm 0 mps 757 mmHg 79%
    19:00 +22°C° 0 mm 0 mps 758 mmHg 82%
    20:00 +21°C° 0 mm 0 mps 758 mmHg 85%
    21:00 +20°C° 0 mm 0 mps 759 mmHg 89%
    22:00 +20°C° 0 mm 0 mps 758 mmHg 90%
    23:00 +20°C° 0 mm 0 mps 758 mmHg 91%

    Day after tomorrow, 19 January, Saturday

    Time Temperature Precipitation Wind Pressure Humidity
    00:00 +20°C° 0 mm 0 mps 758 mmHg 92%
    01:00 +19°C° 0 mm 0 mps 758 mmHg 92%
    02:00 +21°C° 0 mm 1 mps 757 mmHg 93%
    03:00 +21°C° 0 mm 1 mps 756 mmHg 94%
    04:00 +21°C° 0 mm 1 mps 756 mmHg 93%
    05:00 +21°C° 0 mm 1 mps 756 mmHg 92%
    06:00 +21°C° 0 mm 1 mps 756 mmHg 92%
    07:00 +22°C° 0 mm 1 mps 757 mmHg 88%
    08:00 +23°C° 0 mm 1 mps 757 mmHg 84%
    09:00 +24°C° 0 mm 1 mps 758 mmHg 80%
    10:00 +25°C° 0 mm 1 mps 758 mmHg 76%
    11:00 +27°C° 0 mm 1 mps 757 mmHg 72%
    12:00 +29°C° 0 mm 1 mps 757 mmHg 68%
    13:00 +29°C° 0 mm 1 mps 756 mmHg 66%
    14:00 +30°C° 0 mm 1 mps 756 mmHg 64%
    15:00 +31°C° 0 mm 1 mps 755 mmHg 63%
    16:00 +29°C° 0.4 mm 2 mps 756 mmHg 69%
    17:00 +27°C° 0.4 mm 3 mps 757 mmHg 75%
    18:00 +25°C° 0.4 mm 4 mps 758 mmHg 81%
    19:00 +24°C° 0 mm 3 mps 760 mmHg 77%
    20:00 +22°C° 0 mm 3 mps 761 mmHg 73%
    21:00 +21°C° 0 mm 2 mps 763 mmHg 69%
    22:00 +21°C° 0 mm 2 mps 763 mmHg 70%
    23:00 +20°C° 0 mm 3 mps 764 mmHg 71%

    20 January, Sunday

    Time Temperature Precipitation Wind Pressure Humidity
    00:00 +20°C° 0 mm 3 mps 764 mmHg 71%
    01:00 +19°C° 0 mm 3 mps 764 mmHg 71%
    02:00 +19°C° 0 mm 3 mps 764 mmHg 71%
    03:00 +18°C° 0 mm 2 mps 764 mmHg 70%
    04:00 +18°C° 0 mm 2 mps 764 mmHg 69%
    05:00 +18°C° 0 mm 3 mps 765 mmHg 68%
    06:00 +18°C° 0 mm 3 mps 765 mmHg 66%
    07:00 +19°C° 0 mm 3 mps 766 mmHg 66%
    08:00 +20°C° 0 mm 3 mps 766 mmHg 66%
    09:00 +21°C° 0 mm 2 mps 767 mmHg 66%
    10:00 +23°C° 0 mm 2 mps 767 mmHg 61%
    11:00 +24°C° 0 mm 2 mps 766 mmHg 57%
    12:00 +24°C° 0 mm 2 mps 766 mmHg 52%
    13:00 +24°C° 0 mm 2 mps 765 mmHg 53%
    14:00 +24°C° 0 mm 2 mps 764 mmHg 54%
    15:00 +24°C° 0 mm 2 mps 764 mmHg 55%
    16:00 +23°C° 0 mm 2 mps 764 mmHg 61%
    17:00 +21°C° 0 mm 2 mps 764 mmHg 66%
    18:00 +21°C° 0 mm 1 mps 764 mmHg 72%
    19:00 +21°C° 0.1 mm 1 mps 765 mmHg 73%
    20:00 +20°C° 0.1 mm 1 mps 765 mmHg 74%
    21:00 +20°C° 0.1 mm 1 mps 766 mmHg 75%
    22:00 +19°C° 0.1 mm 1 mps 766 mmHg 77%
    23:00 +19°C° 0.1 mm 1 mps 765 mmHg 79%

    21 January, Monday

    Time Temperature Precipitation Wind Pressure Humidity
    00:00 +19°C° 0.1 mm 1 mps 765 mmHg 81%
    01:00 +18°C° 0 mm 1 mps 765 mmHg 81%
    02:00 +18°C° 0 mm 1 mps 764 mmHg 82%
    03:00 +16°C° 0 mm 1 mps 764 mmHg 83%
    04:00 +16°C° 0 mm 1 mps 764 mmHg 83%
    05:00 +15°C° 0 mm 1 mps 764 mmHg 84%
    06:00 +15°C° 0 mm 1 mps 764 mmHg 84%
    07:00 +16°C° 0 mm 1 mps 764 mmHg 80%
    08:00 +16°C° 0 mm 0 mps 764 mmHg 76%
    09:00 +18°C° 0 mm 0 mps 764 mmHg 72%
    10:00 +21°C° 0 mm 1 mps 763 mmHg 67%
    11:00 +23°C° 0 mm 1 mps 763 mmHg 63%
    12:00 +24°C° 0 mm 1 mps 762 mmHg 58%
    13:00 +24°C° 0 mm 1 mps 761 mmHg 58%
    14:00 +25°C° 0 mm 1 mps 760 mmHg 57%
    15:00 +25°C° 0 mm 2 mps 758 mmHg 57%
    16:00 +24°C° 0 mm 1 mps 758 mmHg 63%
    17:00 +22°C° 0 mm 1 mps 758 mmHg 69%
    18:00 +21°C° 0 mm 1 mps 758 mmHg 75%
    19:00 +20°C° 0 mm 1 mps 759 mmHg 79%
    20:00 +19°C° 0 mm 1 mps 759 mmHg 83%
    21:00 +18°C° 0 mm 1 mps 760 mmHg 87%
    22:00 +16°C° 0 mm 1 mps 760 mmHg 89%
    23:00 +16°C° 0 mm 1 mps 759 mmHg 92%

    22 January, Tuesday

    Time Temperature Precipitation Wind Pressure Humidity
    00:00 +16°C° 0 mm 2 mps 759 mmHg 94%
    01:00 +15°C° 0 mm 2 mps 759 mmHg 94%
    02:00 +15°C° 0 mm 2 mps 758 mmHg 95%
    03:00 +15°C° 0 mm 2 mps 758 mmHg 95%
    04:00 +15°C° 0 mm 2 mps 757 mmHg 94%
    05:00 +15°C° 0 mm 1 mps 757 mmHg 93%
    06:00 +15°C° 0 mm 1 mps 757 mmHg 93%
    07:00 +16°C° 0 mm 1 mps 757 mmHg 88%
    08:00 +18°C° 0 mm 1 mps 758 mmHg 84%
    09:00 +19°C° 0 mm 2 mps 758 mmHg 79%
    10:00 +21°C° 0 mm 2 mps 757 mmHg 74%
    11:00 +23°C° 0 mm 2 mps 757 mmHg 69%
    12:00 +25°C° 0 mm 2 mps 756 mmHg 64%
    13:00 +26°C° 0 mm 2 mps 755 mmHg 64%
    14:00 +27°C° 0 mm 2 mps 754 mmHg 64%
    15:00 +28°C° 0 mm 2 mps 753 mmHg 63%
    16:00 +26°C° 0 mm 2 mps 753 mmHg 70%
    17:00 +25°C° 0 mm 1 mps 754 mmHg 77%
    18:00 +22°C° 0 mm 0 mps 754 mmHg 84%
    19:00 +21°C° 0 mm 0 mps 755 mmHg 86%
    20:00 +20°C° 0 mm 0 mps 756 mmHg 88%
    21:00 +20°C° 0 mm 0 mps 756 mmHg 91%
    22:00 +19°C° 0 mm 0 mps 756 mmHg 91%
    23:00 +19°C° 0 mm 0 mps 756 mmHg 91%
    Show more